Flag for Tuvalu Weather past 2 weeks in Funafuti, Tuvalu

Now
88 °F

Scattered showers. Scattered clouds.


Feels Like: 105 °F
Forecast: 81 / 86 °F
Wind: 6 mph from Southeast

Location: Funafuti

Current Time: May 29, 2015 at 1:27:16 PM

Latest Report: May 29, 2015 at 1:00 PM


Visibility: N/A

Pressure: 29.86 "Hg

Humidity: 79%

Dew point: 81 °F

Location of FunafutiLocation

Historic Weather in Funafuti — Graph

°F

Funafuti temperature yesterday

Maximum temperature yesterday: 84 °F (at 12:00 AM)
Minimum temperature yesterday: 81 °F (at 9:00 AM)
Average temperature yesterday: 83 °F

Past Weeks' High & Low Weather Summary

 TemperatureHumidityPressure
High91 °F (May 15, 2:00 PM)100% (May 22, 8:00 AM)29.98 "Hg (May 22, 8:00 AM)
Low75 °F (May 18, 5:00 PM)63% (May 24, 12:00 PM)29.71 "Hg (May 16, 5:00 PM)
Average85 °F80%29.84 "Hg
* Reported May 14 12:00 Noon — May 29 12:00 Noon, Funafuti, Weather by CustomWeather, © 2015

Note: Actual official high and low records may vary slightly from our data, if they occured in-between our weather recording intervals... More about our weather records

Advertising

Funafuti weather history for previous 24 hours

 ConditionsComfort  
Time TempWeatherWind HumidityBarometerVisibility
12:00 PM
Fri, May 29
88 °FPartly sunny.7 mph79%29.89 "HgN/A
11:00 AM88 °FScattered showers. Partly sunny.9 mph75%29.89 "HgN/A
10:00 AM86 °FScattered showers. Broken clouds.3 mph79%29.92 "HgN/A
9:00 AM84 °FScattered showers. Broken clouds.3 mph84%29.92 "HgN/A
8:00 AM84 °FScattered showers. Cloudy.3 mph84%29.92 "HgN/A
7:00 AM84 °FScattered showers. Cloudy.3 mph84%29.89 "HgN/A
6:00 AM82 °FScattered showers. Partly cloudy.6 mph84%29.89 "HgN/A
5:00 AM82 °FPartly cloudy.3 mph89%29.86 "HgN/A
4:00 AM82 °FPartly cloudy.8 mph84%29.86 "HgN/A
3:00 AM82 °FPartly cloudy.No wind84%29.86 "HgN/A
2:00 AM82 °FPassing clouds.1 mph84%29.86 "HgN/A
1:00 AM82 °FPassing clouds.3 mph84%29.89 "HgN/A
12:00 AM82 °FPassing clouds.No wind79%29.89 "HgN/A
11:00 PM
Thu, May 28
82 °FPassing clouds.No wind79%29.89 "HgN/A
10:00 PM82 °FPartly cloudy.No wind79%29.89 "HgN/A
9:00 PM82 °FPartly cloudy.No wind84%29.89 "HgN/A
8:00 PM82 °FPartly cloudy.No wind84%29.89 "HgN/A
7:00 PM82 °FScattered showers. Partly cloudy.3 mph79%29.83 "HgN/A
6:00 PM82 °FScattered showers. Mostly cloudy.No wind79%29.86 "HgN/A
5:00 PM82 °FScattered showers. More clouds than sun.2 mph79%29.83 "HgN/A
4:00 PM82 °FScattered showers. More clouds than sun.3 mph79%29.83 "HgN/A
3:00 PM82 °FScattered showers. More clouds than sun.5 mph79%29.80 "HgN/A
2:00 PM84 °FSprinkles. More clouds than sun.8 mph74%29.83 "HgN/A
1:00 PM84 °FScattered showers. More clouds than sun.9 mph79%29.83 "HgN/A
Weather by CustomWeather, © 2015

See weather overviewHow to use our weather pages